Location: Molveno
(46.1500°N, 10.9667°E)
Time: 01:21:27
(UTC+00:00)

Cosmos 2327 Rocket - Pass Details

Date: 05 July 2020
Orbit: 944 x 1008 km, 83.0° (Epoch: 11 August)

Event Time Altitude Azimuth Distance (km) Brightness Sun altitude
Exits shadow 21:52:18 26° 184° (S) 1,788 5.4 -18.3°
Maximum altitude 21:55:58 86° 97° (E) 971 4.4 -18.5°
Drops below altitude 10° 22:02:08 10° 9° (N) 2,690 7.7 -18.9°
Sets 22:04:37 0° 9° (N) 3,634 8.6 -19.0°
